KB3YCK-2 Weather Reports


time (UTC)temp
F
wind
direction
speed
knots
gust
knots
rain 1hr
in
rain 24hr
in
rain mn
in
humidity
%
barometer
mb
20260510190508 76 30 0.9 4.3 0.00 0.00 0.00 74 1013.2
20260510190022 76 111 1.7 7.8 0.00 0.00 0.00 74 1013.1
20260510185504 76 120 1.7 8.7 0.00 0.00 0.00 75 1013.2
20260510185003 76 108 2.6 8.7 0.00 0.00 0.00 75 1013.3
20260510184513 76 212 1.7 8.7 0.00 0.00 0.00 75 1013.2
20260510184013 75 124 1.7 4.3 0.00 0.00 0.00 74 1013.3
20260510183504 75 26 0.0 3.5 0.00 0.00 0.00 74 1013.4
20260510183010 74 316 0.9 3.5 0.00 0.00 0.00 74 1013.4
20260510182508 74 61 0.0 3.5 0.00 0.00 0.00 75 1013.3
20260510182012 74 103 0.9 6.1 0.00 0.00 0.00 73 1013.4
20260510181506 74 93 0.0 6.1 0.00 0.00 0.00 73 1013.5
20260510181010 74 193 0.9 8.7 0.00 0.00 0.00 73 1013.3
20260510180507 75 51 2.6 9.6 0.00 0.00 0.00 73 1013.4
20260510180002 76 40 3.5 9.6 0.00 0.00 0.00 72 1013.5
20260510175506 77 323 1.7 8.7 0.00 0.00 0.00 73 1013.4
20260510175008 77 22 1.7 7.8 0.00 0.00 0.00 73 1013.5
20260510174522 76 340 2.6 7.0 0.00 0.00 0.00 73 1013.6
20260510174007 76 325 0.9 5.2 0.00 0.00 0.00 75 1013.6
20260510173506 74 108 0.0 7.0 0.00 0.00 0.00 73 1013.6
20260510173017 74 83 1.7 8.7 0.00 0.00 0.00 73 1013.7
20260510172509 74 9 1.7 9.6 0.00 0.00 0.00 73 1013.6
20260510172004 75 129 2.6 12.2 0.00 0.00 0.00 72 1013.6
20260510171504 76 265 1.7 12.2 0.00 0.00 0.00 71 1013.5
20260510171002 77 252 2.6 7.0 0.00 0.00 0.00 72 1013.6
20260510170502 76 221 1.7 7.0 0.00 0.00 0.00 74 1013.6
20260510170003 76 210 1.7 6.1 0.00 0.00 0.00 73 1013.6
20260510165502 76 193 0.9 7.8 0.00 0.00 0.00 74 1013.6
20260510165003 75 32 0.9 7.8 0.00 0.00 0.00 73 1013.7
20260510164503 75 284 3.5 7.8 0.00 0.00 0.00 74 1013.7
20260510164004 75 232 1.7 7.0 0.00 0.00 0.00 75 1013.7
20260510163502 75 250 1.7 6.1 0.00 0.00 0.00 73 1013.7
20260510163004 74 61 2.6 7.0 0.00 0.00 0.00 73 1013.6
20260510162503 74 101 1.7 7.0 0.00 0.00 0.00 73 1013.7
20260510162003 75 309 1.7 9.6 0.00 0.00 0.00 72 1013.7
20260510161505 74 309 0.9 9.6 0.00 0.00 0.00 75 1013.6
20260510161002 74 215 1.7 13.0 0.00 0.00 0.00 73 1013.7
20260510160503 74 149 2.6 13.0 0.00 0.00 0.00 76 1013.7
20260510160004 74 302 2.6 8.7 0.00 0.00 0.00 73 1013.7
20260510155502 74 279 2.6 7.0 0.00 0.00 0.00 73 1013.7
20260510155002 74 237 0.9 7.8 0.00 0.00 0.00 75 1013.7
20260510154504 73 298 1.7 8.7 0.00 0.00 0.00 75 1013.7
20260510154002 73 146 1.7 8.7 0.00 0.00 0.00 75 1013.7
20260510153502 73 102 1.7 8.7 0.00 0.00 0.00 74 1013.7
20260510153009 73 243 2.6 9.6 0.00 0.00 0.00 74 1013.7
20260510152503 72 15 2.6 9.6 0.00 0.00 0.00 74 1013.8
20260510152002 72 68 2.6 7.8 0.00 0.00 0.00 75 1013.8
20260510151504 72 124 1.7 8.7 0.00 0.00 0.00 74 1013.8
20260510151004 73 245 1.7 13.0 0.00 0.00 0.00 76 1013.8
20260510150503 72 257 3.5 13.0 0.00 0.00 0.00 75 1013.7
20260510150004 72 144 1.7 7.0 0.00 0.00 0.00 76 1013.7
20260510145504 72 257 1.7 7.0 0.00 0.00 0.00 74 1013.7
20260510145005 72 235 2.6 6.1 0.00 0.00 0.00 75 1013.6
20260510144508 71 9 1.7 7.8 0.00 0.00 0.00 78 1013.5
20260510144004 71 93 1.7 7.8 0.00 0.00 0.00 76 1013.6
20260510143502 71 245 0.9 7.8 0.00 0.00 0.00 77 1013.5
20260510143005 70 150 3.5 7.8 0.00 0.00 0.00 77 1013.5
20260510142505 70 144 1.7 7.8 0.00 0.00 0.00 79 1013.6
20260510142002 69 36 1.7 7.8 0.00 0.00 0.00 78 1013.7
20260510141504 69 360 2.6 7.0 0.00 0.00 0.00 78 1013.7
20260510141004 69 144 1.7 7.8 0.00 0.00 0.00 79 1013.7
20260510140503 69 44 2.6 7.0 0.00 0.00 0.00 79 1013.7
20260510140008 68 226 1.7 7.8 0.00 0.00 0.00 82 1013.7
20260510135504 67 309 1.7 7.8 0.00 0.00 0.00 83 1013.7
20260510135003 66 17 2.6 7.0 0.00 0.00 0.00 84 1013.6
20260510134504 65 140 1.7 3.5 0.00 0.00 0.00 84 1013.6
20260510134003 64 126 0.0 3.5 0.00 0.00 0.00 84 1013.6
20260510133503 64 9 1.7 5.2 0.00 0.00 0.00 85 1013.6
20260510133008 62 178 0.9 5.2 0.00 0.00 0.00 84 1013.4
20260510132506 60 178 1.7 3.5 0.00 0.00 0.00 83 1013.6
20260510132006 59 137 0.9 3.5 0.00 0.00 0.00 85 1013.7
20260510131508 58 120 0.9 4.3 0.00 0.00 0.00 87 1013.7
20260510131004 56 243 1.7 4.3 0.00 0.00 0.00 87 1013.7
20260510130504 56 137 0.0 3.5 0.00 0.00 0.00 87 1013.7
20260510130016 55 142 0.9 4.3 0.00 0.00 0.00 87 1013.7
20260510125503 55 108 0.9 4.3 0.00 0.00 0.00 87 1013.7
20260510125005 54 126 0.9 1.7 0.00 0.00 0.00 87 1013.7
20260510124508 54 120 0.0 1.7 0.00 0.00 0.00 88 1013.8
20260510124005 53 111 0.0 3.5 0.00 0.00 0.00 88 1013.7
20260510123504 53 137 0.9 3.5 0.00 0.00 0.00 87 1013.7
20260510123007 53 178 0.0 1.7 0.00 0.00 0.00 87 1013.7
20260510122505 52 137 0.9 1.7 0.00 0.00 0.00 87 1013.7
20260510122008 52 93 0.0 0.9 0.00 0.00 0.00 87 1013.6
20260510121508 52 178 0.0 0.9 0.00 0.00 0.00 87 1013.5
20260510121005 52 137 0.0 1.7 0.00 0.00 0.00 87 1013.5
20260510120505 52 137 0.0 1.7 0.00 0.00 0.00 87 1013.5
20260510120024 52 137 0.0 1.7 0.00 0.00 0.00 87 1013.5
20260510115502 52 51 0.0 1.7 0.00 0.00 0.00 87 1013.3
20260510115006 51 51 0.0 1.7 0.00 0.00 0.00 87 1013.2
20260510114514 51 93 0.0 1.7 0.00 0.00 0.00 87 1013.1
20260510114003 51 51 0.0 1.7 0.00 0.00 0.00 87 1013.0
20260510113505 51 51 0.0 2.6 0.00 0.00 0.00 87 1012.9
20260510113009 51 34 0.0 2.6 0.00 0.00 0.00 87 1012.9
20260510112504 51 178 0.0 1.7 0.00 0.00 0.00 87 1012.7
20260510112005 51 153 0.0 1.7 0.00 0.00 0.00 88 1012.7
20260510111503 50 146 0.0 1.7 0.00 0.00 0.00 88 1012.8
20260510111004 50 34 0.0 1.7 0.00 0.00 0.00 88 1012.8
20260510110507 50 9 0.0 2.6 0.00 0.00 0.00 88 1012.7
20260510110005 50 93 0.0 2.6 0.00 0.00 0.00 88 1012.9
20260510105504 50 137 0.9 5.2 0.00 0.00 0.00 88 1012.9
20260510105002 49 120 2.6 5.2 0.00 0.00 0.00 88 1012.8
20260510104504 49 19 0.0 2.6 0.00 0.00 0.00 88 1012.4
20260510104003 49 34 0.9 2.6 0.00 0.00 0.00 88 1012.5
20260510101505 49 51 0.0 2.6 0.00 0.00 0.00 87 1012.2
20260510101005 49 44 0.9 1.7 0.00 0.00 0.00 87 1012.3
20260510100503 49 34 0.0 1.7 0.00 0.00 0.00 87 1012.1
20260510100004 49 68 0.0 1.7 0.00 0.00 0.00 87 1011.9
20260510095505 49 34 0.0 0.9 0.00 0.00 0.00 87 1011.9
20260510095002 49 51 0.0 0.9 0.00 0.00 0.00 87 1011.9
20260510094505 49 93 0.0 1.7 0.00 0.00 0.00 87 1011.9
20260510094002 49 51 0.0 1.7 0.00 0.00 0.00 87 1012.0
20260510091508 49 22 0.9 1.7 0.00 0.00 0.00 87 1011.8
20260510091006 49 26 0.0 1.7 0.00 0.00 0.00 87 1011.7
20260510090504 49 120 0.0 3.5 0.00 0.00 0.00 87 1011.8
20260510090008 49 9 0.0 3.5 0.00 0.00 0.00 87 1011.7
20260510085504 50 22 0.9 4.3 0.00 0.00 0.00 87 1012.0
20260510085003 50 51 0.9 4.3 0.00 0.00 0.00 87 1011.8
20260510084504 50 313 1.7 4.3 0.00 0.00 0.00 88 1012.1
20260510084008 50 105 1.7 7.0 0.00 0.00 0.00 87 1011.9
20260510083503 49 314 0.9 7.0 0.00 0.00 0.00 88 1011.7
20260510083002 49 146 1.7 6.1 0.00 0.00 0.00 88 1012.4
20260510082503 49 140 4.3 7.8 0.00 0.00 0.00 89 1012.0
20260510081511 47 334 0.0 7.8 0.00 0.00 0.00 91 1011.4
20260510081003 46 41 1.7 6.1 0.00 0.00 0.00 90 1012.0
20260510080503 46 137 0.0 0.9 0.00 0.00 0.00 91 1011.1
20260510080008 46 26 0.0 2.6 0.00 0.00 0.00 90 1011.1
20260510075503 46 93 0.0 2.6 0.00 0.00 0.00 90 1011.1
20260510075004 46 22 0.0 2.6 0.00 0.00 0.00 91 1011.1
20260510074510 46 34 1.7 2.6 0.00 0.00 0.00 91 1011.2
20260510074010 46 239 0.0 0.9 0.00 0.00 0.00 91 1011.1
20260510073502 46 51 0.0 0.9 0.00 0.00 0.00 91 1011.1
20260510073010 46 93 0.0 1.7 0.00 0.00 0.00 91 1011.0
20260510072506 46 34 0.0 1.7 0.00 0.00 0.00 91 1011.0
20260510071503 46 265 0.0 0.9 0.00 0.00 0.00 91 1011.0
20260510071002 46 247 0.0 0.9 0.00 0.00 0.00 91 1011.0
20260510070503 46 51 0.0 1.7 0.00 0.00 0.00 91 1010.9
20260510061519 47 9 0.0 0.0 0.00 0.00 0.00 92 1010.8
20260510061006 47 9 0.0 0.0 0.00 0.00 0.00 92 1010.8
20260510060509 47 51 0.0 0.9 0.00 0.00 0.00 92 1010.7
20260510060010 47 51 0.0 0.9 0.00 0.00 0.00 92 1010.8
20260510055506 47 34 0.0 0.9 0.00 0.00 0.00 92 1010.8
20260510055008 48 9 0.0 0.9 0.00 0.00 0.00 92 1010.8
20260510054504 48 9 0.0 1.7 0.00 0.00 0.00 92 1010.8
20260510054008 48 93 0.0 1.7 0.00 0.00 0.00 92 1010.9
20260510051514 48 9 0.0 0.9 0.00 0.00 0.00 92 1011.1
20260510051007 48 51 0.0 1.7 0.00 0.00 0.00 92 1011.1
20260510050504 48 309 0.0 1.7 0.00 0.00 0.00 92 1011.2
20260510050016 48 265 0.0 0.9 0.00 0.00 0.00 92 1011.2
20260510045511 48 34 0.0 0.9 0.00 0.00 0.00 92 1011.2
20260510045010 48 51 0.0 0.9 0.00 0.00 0.00 92 1011.3
20260510041512 49 9 0.0 1.7 0.00 0.00 0.00 92 1011.3
20260510041004 49 9 0.0 0.9 0.00 0.00 0.00 92 1011.4
20260510040502 49 34 0.0 0.9 0.00 0.00 0.00 92 1011.4
20260510040004 49 93 0.0 0.9 0.00 0.00 0.00 92 1011.4
20260510035504 49 51 0.0 0.9 0.00 0.00 0.00 92 1011.5
20260510035004 49 9 0.0 0.9 0.00 0.00 0.00 92 1011.5
20260510034505 49 9 0.0 0.9 0.00 0.00 0.00 92 1011.5
20260510034004 49 51 0.0 0.9 0.00 0.00 0.00 92 1011.4
20260510033508 50 9 0.0 0.9 0.00 0.00 0.00 91 1011.4
20260510033003 50 51 0.0 0.9 0.00 0.00 0.00 91 1011.3
20260510032503 50 93 0.0 0.9 0.00 0.00 0.00 91 1011.2
20260510032006 50 9 0.0 1.7 0.00 0.00 0.00 92 1011.2
20260510031507 50 9 0.0 1.7 0.00 0.00 0.00 92 1011.2
20260510031002 50 9 0.0 0.9 0.00 0.00 0.00 92 1011.2
20260510030503 50 51 0.0 0.9 0.00 0.00 0.00 91 1011.1
20260510030005 50 9 0.0 0.9 0.00 0.00 0.00 91 1011.0
20260510025503 51 93 0.0 0.9 0.00 0.00 0.00 92 1010.9
20260510025006 51 325 0.0 0.9 0.00 0.00 0.00 91 1011.0
20260510024505 51 9 0.0 0.9 0.00 0.00 0.00 91 1010.9
20260510024005 51 9 0.0 0.9 0.00 0.00 0.00 91 1010.9
20260510023502 51 9 0.0 0.9 0.00 0.00 0.00 91 1010.8
20260510023003 51 137 0.0 1.7 0.00 0.00 0.00 91 1010.8
20260510022504 51 51 0.0 1.7 0.00 0.00 0.00 91 1010.9
20260510022007 51 26 0.0 1.7 0.00 0.00 0.00 91 1011.0
20260510021511 51 9 0.0 1.7 0.00 0.00 0.00 91 1010.9
20260510021004 52 51 0.0 1.7 0.00 0.00 0.00 91 1010.9
20260510020507 52 265 0.0 1.7 0.00 0.00 0.00 91 1010.9
20260510020012 52 9 0.0 0.9 0.00 0.00 0.00 91 1010.9
20260510015503 52 9 0.0 0.9 0.00 0.00 0.00 91 1010.9
20260510015003 52 9 0.0 1.7 0.00 0.00 0.00 91 1010.9
20260510014509 52 9 0.0 1.7 0.00 0.00 0.00 91 1010.8
20260510014003 53 26 0.0 0.9 0.00 0.00 0.00 91 1010.7
20260510013504 53 9 0.0 0.9 0.00 0.00 0.00 91 1010.7
20260510013007 53 9 0.0 0.9 0.00 0.00 0.00 91 1010.6
20260510012504 53 51 0.0 0.9 0.00 0.00 0.00 91 1010.7
20260510012003 53 9 0.0 0.9 0.00 0.00 0.00 91 1010.6
20260510011508 53 9 0.0 0.9 0.00 0.00 0.00 90 1010.5
20260510011005 54 9 0.0 0.9 0.00 0.00 0.00 90 1010.6
20260510010507 54 93 0.0 0.9 0.00 0.00 0.00 90 1010.4
20260510010003 54 9 0.0 0.9 0.00 0.00 0.00 89 1010.4
20260510005504 54 9 0.0 0.9 0.00 0.00 0.00 88 1010.3
20260510005007 54 93 0.0 0.9 0.00 0.00 0.00 89 1010.1
20260510004522 55 51 0.0 0.9 0.00 0.00 0.00 89 1010.1
20260510004006 55 51 0.0 0.9 0.00 0.00 0.00 88 1010.1
20260510003508 55 93 0.0 0.9 0.00 0.00 0.00 88 1010.2
20260510003018 56 51 0.0 0.9 0.00 0.00 0.00 88 1010.3
20260510002503 56 9 0.0 0.9 0.00 0.00 0.00 87 1010.2
20260510002006 56 178 0.0 1.7 0.00 0.00 0.00 87 1010.1
20260510001512 57 93 0.0 1.7 0.00 0.00 0.00 88 1010.1
20260510001008 57 9 0.0 1.7 0.00 0.00 0.00 88 1010.1
20260510000504 57 9 0.0 0.9 0.00 0.00 0.00 87 1010.0
20260510000009 58 51 0.0 1.7 0.00 0.00 0.00 87 1010.1
20260509235506 58 9 0.0 1.7 0.00 0.00 0.00 87 1010.0
20260509235009 58 9 0.0 1.7 0.00 0.00 0.00 86 1010.0
20260509234519 59 51 0.0 1.7 0.00 0.00 0.00 86 1010.1
20260509234006 59 9 0.0 1.7 0.00 0.00 0.00 86 1010.2
20260509233506 59 9 0.0 1.7 0.00 0.00 0.00 86 1010.1
20260509233006 60 61 0.0 1.7 0.00 0.00 0.00 86 1010.0
20260509232504 60 93 0.0 1.7 0.00 0.00 0.00 86 1010.0
20260509232009 60 34 0.0 1.7 0.00 0.00 0.00 86 1010.0
20260509231520 60 41 0.0 3.5 0.00 0.00 0.00 85 1010.0
20260509231004 61 34 0.9 3.5 0.00 0.00 0.00 85 1010.0
20260509230506 61 309 0.0 2.6 0.00 0.00 0.00 85 1010.0
20260509230015 61 26 0.0 2.6 0.00 0.00 0.00 84 1009.9
20260509225509 61 298 0.9 2.6 0.00 0.00 0.00 85 1009.9
20260509225003 61 22 0.0 1.7 0.00 0.00 0.00 86 1009.8
20260509224527 61 93 0.0 1.7 0.00 0.00 0.00 87 1009.8
20260509224009 61 93 0.0 1.7 0.00 0.00 0.00 86 1009.9
20260509223506 60 309 0.0 1.7 0.00 0.00 0.00 86 1010.0
20260509223007 60 120 0.0 1.7 0.00 0.00 0.00 85 1010.0
20260509222506 60 162 0.9 1.7 0.00 0.00 0.00 85 1010.1
20260509222009 60 292 0.0 1.7 0.00 0.00 0.00 85 1010.1
20260509221512 60 120 0.0 2.6 0.00 0.00 0.00 86 1010.1
20260509221007 60 93 0.9 2.6 0.00 0.00 0.00 85 1010.1
20260509220515 60 51 0.9 2.6 0.00 0.00 0.00 86 1010.1
20260509220025 60 221 0.9 2.6 0.00 0.00 0.00 86 1010.0
20260509215502 60 34 0.0 2.6 0.00 0.00 0.00 85 1010.0
20260509215006 60 137 0.9 2.6 0.00 0.00 0.00 85 1010.0
20260509214519 60 61 0.0 2.6 0.00 0.00 0.00 85 1009.9
20260509214002 60 111 0.0 2.6 0.00 0.00 0.00 87 1010.0
20260509213503 60 34 0.0 2.6 0.00 0.00 0.00 86 1010.0
20260509213015 60 93 0.9 2.6 0.00 0.00 0.00 86 1010.0
20260509212509 60 291 0.0 2.6 0.00 0.00 0.00 86 1010.0
20260509212006 60 51 0.0 3.5 0.00 0.00 0.00 86 1010.0
20260509211502 60 9 0.0 4.3 0.00 0.00 0.00 86 1009.9
20260509211003 60 178 0.9 4.3 0.00 0.00 0.00 85 1009.9
20260509210503 60 126 0.0 2.6 0.00 0.00 0.00 85 1009.9
20260509210008 60 309 0.9 2.6 0.00 0.00 0.00 85 1009.9
20260509205503 61 44 0.0 2.6 0.00 0.00 0.00 85 1010.0
20260509205002 61 76 0.0 2.6 0.00 0.00 0.00 86 1010.0
20260509204525 61 111 0.0 1.7 0.00 0.00 0.00 86 1010.0
20260509204002 61 9 0.9 1.7 0.00 0.00 0.00 85 1010.1
20260509203503 61 162 0.0 1.7 0.00 0.00 0.00 85 1010.0
20260509203005 61 144 0.9 1.7 0.00 0.00 0.00 84 1010.0
20260509202503 61 34 0.0 1.7 0.00 0.00 0.00 83 1010.2
20260509202004 61 221 0.0 2.6 0.00 0.00 0.00 82 1010.1
20260509201502 61 68 0.0 3.5 0.00 0.00 0.00 81 1010.3
20260509201003 62 319 0.0 3.5 0.00 0.00 0.00 81 1010.2
20260509200505 62 111 0.9 2.6 0.00 0.00 0.00 81 1010.1
20260509200003 62 68 1.7 3.5 0.00 0.00 0.00 82 1010.1
20260509195504 62 309 0.9 4.3 0.00 0.00 0.00 80 1010.1
20260509195004 62 73 0.9 7.8 0.00 0.00 0.00 82 1010.1
20260509194502 62 9 1.7 7.8 0.00 0.00 0.00 83 1010.1
20260509194003 62 51 1.7 7.8 0.00 0.00 0.00 83 1010.2
20260509193525 61 93 2.6 7.0 0.00 0.00 0.00 82 1010.2
20260509193011 61 16 2.6 7.0 0.00 0.00 0.00 84 1010.2
20260509192502 61 137 1.7 3.5 0.00 0.00 0.00 85 1010.3
20260509192004 60 9 1.7 3.5 0.00 0.00 0.00 84 1010.4
20260509191511 60 292 0.9 7.0 0.00 0.00 0.00 84 1010.5
20260509191007 60 93 2.6 7.0 0.00 0.00 0.00 83 1010.7